Weather History for Pecos, TX

Change the Weather History Date:

Wednesday, October 10, 2012

  Actual Average Record
Temperature  
Mean Temperature 61 °F -  
Max Temperature 70 °F 83 °F 100 °F (1965)
Min Temperature 52 °F 50 °F 34 °F (1970)
Degree Days  
Heating Degree Days 4    
Growing Degree Days 11 (Base 50)    
Moisture  
Dew Point 50 °F    
Average Humidity 69    
Maximum Humidity 89    
Minimum Humidity 48    
Precipitation  
Precipitation 0.00 in - - ()
Sea Level Pressure  
Sea Level Pressure 30.09 in    
Wind  
Wind Speed 5 mph (NNE)    
Max Wind Speed 15 mph    
Max Gust Speed 20 mph    
Visibility 10 miles    
Events      
Averages and records for this station are not official NWS values.
T = Trace of Precipitation, MM = Missing Value Source: NWS Daily Summary

Daily Weather History Graph

Daily Weather History Graph

Search for Another Location

Airport:

Trip Planner

Search our weather history database for the weather conditions in past years. The results will help you decide how hot, cold, wet, or windy it might be!

Date:

Astronomy

Oct. 10, 2012 Rise Set
Actual Time 7:53 AM CDT 7:27 PM CDT
Civil Twilight 7:29 AM CDT 7:51 PM CDT
Nautical Twilight 7:01 AM CDT 8:19 PM CDT
Astronomical Twilight 6:33 AM CDT 8:47 PM CDT
Moon 2:51 AM CDT (10/10) 4:14 PM CDT (10/10)
Length of Visible Light 12h 22m
Length of Day
11h 33m
Waning Crescent, 27% of the Moon is Illuminated
Oct 10
Waning Crescent
Oct 15
New
Oct 21
First Quarter
Oct 29
Full
Nov 6
Last Quarter

Hourly Weather History & Observations

Time (CDT) Temp. Dew Point Humidity Pressure Visibility Wind Dir Wind Speed Gust Speed Precip Events Conditions
12:15 AM 61.2 °F 50.4 °F 68% 29.98 in 10.0 mi North 3.5 mph - N/A   Clear
12:35 AM 61.0 °F 50.4 °F 68% 29.98 in 10.0 mi NE 6.9 mph - N/A   Clear
12:55 AM 59.0 °F 50.7 °F 74% 29.98 in 10.0 mi NE 4.6 mph - N/A   Clear
1:15 AM 58.5 °F 51.3 °F 77% 29.98 in 10.0 mi NNE 4.6 mph - N/A   Clear
1:35 AM 59.9 °F 52.3 °F 76% 29.98 in 10.0 mi Calm Calm - N/A   Clear
1:55 AM 56.8 °F 50.0 °F 78% 29.98 in 10.0 mi Calm Calm - N/A   Clear
2:15 AM 54.7 °F 49.1 °F 81% 29.98 in 10.0 mi Calm Calm - N/A   Clear
2:35 AM 55.0 °F 49.5 °F 81% 29.99 in 10.0 mi Calm Calm - N/A   Clear
2:55 AM 55.6 °F 49.8 °F 81% 30.00 in 10.0 mi NNW 3.5 mph - N/A   Clear
3:15 AM 54.5 °F 49.3 °F 83% 30.00 in 10.0 mi NW 3.5 mph - N/A   Clear
3:35 AM 54.5 °F 49.8 °F 84% 30.00 in 10.0 mi NNW 4.6 mph - N/A   Clear
3:55 AM 54.5 °F 49.5 °F 83% 30.00 in 10.0 mi NNW 4.6 mph - N/A   Clear
4:15 AM 54.9 °F 49.8 °F 83% 30.00 in 10.0 mi NNW 3.5 mph - N/A   Clear
4:35 AM 53.4 °F 49.1 °F 85% 30.00 in 10.0 mi NW 3.5 mph - N/A   Clear
4:55 AM 52.5 °F 48.9 °F 88% 30.01 in 10.0 mi WNW 3.5 mph - N/A   Clear
5:15 AM 52.0 °F 48.6 °F 88% 30.02 in 10.0 mi NW 5.8 mph - N/A   Clear
5:35 AM 52.9 °F 49.5 °F 88% 30.02 in 10.0 mi NW 5.8 mph - N/A   Clear
5:55 AM 52.7 °F 49.3 °F 88% 30.02 in 10.0 mi NNW 5.8 mph - N/A   Clear
7:15 AM 55.9 °F 52.7 °F 89% 30.09 in 10.0 mi North 11.5 mph - N/A   Clear
7:35 AM 55.9 °F 51.6 °F 85% 30.11 in 10.0 mi North 9.2 mph - N/A   Clear
7:55 AM 54.9 °F 49.8 °F 83% 30.12 in 10.0 mi NW 11.5 mph - N/A   Clear
8:15 AM 54.9 °F 48.2 °F 78% 30.14 in 10.0 mi NNW 12.7 mph - N/A   Scattered Clouds
8:35 AM 56.1 °F 46.6 °F 70% 30.16 in 10.0 mi NNW 11.5 mph - N/A   Overcast
8:55 AM 57.2 °F 45.1 °F 64% 30.17 in 10.0 mi NNW 15.0 mph 19.6 mph N/A   Overcast
9:35 AM 58.1 °F 44.2 °F 60% 30.20 in 10.0 mi NNW 15.0 mph 19.6 mph N/A   Overcast
10:15 AM 58.5 °F 43.7 °F 58% 30.22 in 10.0 mi North 13.8 mph - N/A   Overcast
11:15 AM 59.2 °F 43.0 °F 55% 30.23 in 10.0 mi NNW 13.8 mph - N/A   Overcast
11:55 AM 60.1 °F 42.8 °F 53% 30.24 in 10.0 mi NNW 9.2 mph - N/A   Overcast
12:15 PM 60.8 °F 43.2 °F 52% 30.24 in 10.0 mi NNW 8.1 mph - N/A   Overcast
1:15 PM 63.0 °F 44.8 °F 51% 30.21 in 10.0 mi North 8.1 mph - N/A   Overcast
1:35 PM 63.9 °F 45.7 °F 52% 30.20 in 10.0 mi NNE 4.6 mph - N/A   Overcast
2:15 PM 66.0 °F 47.1 °F 50% 30.18 in 10.0 mi NNE 4.6 mph - N/A   Overcast
2:55 PM 67.3 °F 47.5 °F 49% 30.15 in 10.0 mi NE 6.9 mph - N/A   Overcast
3:15 PM 67.6 °F 48.0 °F 49% 30.13 in 10.0 mi Calm Calm - N/A   Overcast
3:35 PM 69.1 °F 48.7 °F 48% 30.12 in 10.0 mi ENE 8.1 mph - N/A   Mostly Cloudy
3:55 PM 69.1 °F 48.6 °F 48% 30.12 in 10.0 mi North 3.5 mph - N/A   Scattered Clouds
4:15 PM 69.8 °F 49.1 °F 48% 30.11 in 10.0 mi Calm Calm - N/A   Clear
4:35 PM 70.3 °F 49.8 °F 48% 30.10 in 10.0 mi ENE 8.1 mph - N/A   Clear
4:55 PM 69.8 °F 50.0 °F 49% 30.10 in 10.0 mi East 6.9 mph - N/A   Clear
5:15 PM 70.0 °F 50.4 °F 50% 30.10 in 10.0 mi ENE 4.6 mph - N/A   Clear
5:35 PM 70.2 °F 50.7 °F 50% 30.09 in 10.0 mi East 5.8 mph - N/A   Clear
5:55 PM 70.0 °F 51.1 °F 51% 30.09 in 10.0 mi ESE 8.1 mph - N/A   Clear
6:15 PM 70.0 °F 51.1 °F 51% 30.08 in 10.0 mi East 8.1 mph - N/A   Clear
6:35 PM 69.1 °F 50.9 °F 52% 30.07 in 10.0 mi ESE 6.9 mph - N/A   Clear
6:55 PM 68.5 °F 51.3 °F 54% 30.07 in 10.0 mi SE 4.6 mph - N/A   Clear
7:15 PM 67.6 °F 51.3 °F 56% 30.08 in 10.0 mi East 5.8 mph - N/A   Clear
7:35 PM 65.1 °F 52.2 °F 63% 30.09 in 10.0 mi East 5.8 mph - N/A   Clear
7:55 PM 63.5 °F 52.7 °F 68% 30.09 in 10.0 mi East 5.8 mph - N/A   Clear
8:15 PM 62.1 °F 52.2 °F 70% 30.09 in 10.0 mi East 5.8 mph - N/A   Clear
8:35 PM 61.2 °F 52.7 °F 74% 30.10 in 10.0 mi East 5.8 mph - N/A   Clear
8:55 PM 60.3 °F 52.7 °F 76% 30.10 in 10.0 mi East 6.9 mph - N/A   Clear
9:15 PM 59.9 °F 52.7 °F 77% 30.10 in 10.0 mi East 4.6 mph - N/A   Clear
9:35 PM 59.2 °F 52.5 °F 79% 30.10 in 10.0 mi East 5.8 mph - N/A   Clear
9:55 PM 59.9 °F 52.7 °F 77% 30.10 in 10.0 mi East 4.6 mph - N/A   Mostly Cloudy
10:15 PM 59.7 °F 52.7 °F 78% 30.10 in 10.0 mi East 5.8 mph - N/A   Scattered Clouds
10:35 PM 59.4 °F 52.9 °F 79% 30.11 in 10.0 mi ENE 5.8 mph - N/A   Scattered Clouds
10:55 PM 59.4 °F 52.7 °F 79% 30.11 in 10.0 mi East 4.6 mph - N/A   Scattered Clouds
11:15 PM 59.0 °F 52.7 °F 80% 30.11 in 10.0 mi ENE 4.6 mph - N/A   Scattered Clouds
11:35 PM 59.7 °F 53.4 °F 80% 30.11 in 10.0 mi ENE 4.6 mph - N/A   Mostly Cloudy
11:55 PM 60.3 °F 53.2 °F 78% 30.11 in 10.0 mi NE 4.6 mph - N/A   Overcast